Temperature
15 15 15 15 15 15 15 15 15 15 15 14 14 14 14 14 14 14 15 14 14 14 15 15 15 15 15 14 14 14 15 15 15 15 15 15 15 15 15 15 15 15 15
15 15 15 15 15 15 15 15 15 15 15 14 14 14 14 14 14 14 14 14 14 14 14 14 14 14 14 14 14 14 14 14 14 14 15 15 15 15 15 15 14 14 14
15 15 15 15 15 15 15 15 14 14 14 14 14 14 14 14 14 14 14 14 14 14 14 14 14 14 14 14 14 14 14 14 14 14 14 14 14 14 14 14 14 14 14
15 15 15 15 15 15 14 14 14 14 14 14 14 14 14 14 14 14 14 14 14 14 14 14 14 14 14 14 14 14 14 14 14 14 14 14 14 14 14 14 14 14 14
15 14 14 14 14 14 14 14 14 14 14 14 14 14 14 14 14 14 14 14 14 14 14 14 14 14 14 14 14 14 14 13 13 13 13 14 14 14 14 14 14 14 14
14 14 14 14 14 14 14 14 14 14 14 14 13 13 13 13 13 13 13 13 13 13 13 13 13 13 13 14 14 13 13 13 13 13 13 13 13 14 14 14 14 14 14
14 14 14 14 14 14 14 14 14 14 14 13 13 13 13 13 13 13 13 13 13 13 13 13 13 13 13 13 13 13 13 13 13 13 13 13 13 13 13 13 13 13 13
14 14 14 14 14 14 14 14 14 14 13 13 13 13 13 13 13 13 13 13 13 13 13 12 12 13 13 13 13 13 13 13 13 13 12 12 13 13 13 13 13 13 13
14 13 13 13 13 13 13 13 13 13 13 13 13 13 13 12 12 12 12 12 12 12 12 12 12 12 12 13 12 12 12 12 12 12 12 12 12 13 12 12 12 13 13
13 13 13 13 13 13 13 13 13 13 13 13 13 13 13 12 12 12 12 12 12 12 12 12 12 12 12 12 12 12 12 12 12 12 12 12 12 12 12 12 12 12 12
13 13 13 13 13 13 13 13 13 13 13 13 13 13 12 12 12 12 11 11 11 11 11 12 12 12 12 12 12 12 12 12 12 12 12 12 12 12 12 12 12 12 12
13 13 13 13 13 13 12 12 13 13 13 13 12 12 12 12 12 12 11 11 11 11 11 11 11 11 11 11 11 11 12 12 12 12 12 12 12 12 12 12 12 12 12
13 13 13 13 12 12 12 12 12 12 12 12 12 12 12 12 12 12 11 11 11 11 11 11 11 11 11 11 11 11 11 11 11 11 11 11 11 11 11 11 11 11 11
13 13 12 12 12 12 12 12 12 12 12 12 12 12 12 12 12 11 11 11 11 10 10 11 11 11 11 11 11 11 11 11 11 11 11 11 11 11 11 11 11 11 11
12 12 12 12 12 12 12 12 12 12 12 12 12 12 12 11 11 11 11 11 11 10 10 10 10 10 11 11 11 11 11 11 11 11 11 11 11 11 11 11 11 11 11
12 12 12 12 12 12 11 11 11 11 11 11 11 11 12 11 11 11 11 11 11 11 10 10 10 10 10 10 10 10 11 11 11 11 11 11 10 10 11 10 10 10 10
12 12 12 12 11 11 11 11 11 11 11 11 11 11 11 11 11 11 11 11 11 11 10 10 10 10 10 10 10 10 10 11 11 10 10 10 10 10 10 10 10 10 10
12 11 11 11 11 11 11 11 11 11 11 11 11 11 11 11 11 11 11 11 11 10 10 10 10 10 10 10 10 10 10 10 10 10 10 10 10 10 10 10 10 10 10
11 11 11 11 11 11 11 11 11 11 11 10 10 10 11 11 11 11 11 10 10 10 10 10 10 10 10 10 10 10 10 10 10 10 10 10 10 10 10 10 10 10 10
11 11 11 11 11 11 11 10 10 10 10 10 10 10 10 10 10 10 10 10 10 10 10 10 10 10 10 10 10 10 10 10 10 10 10 10 10 10 10 10 10 10 10
11 10 10 10 10 10 10 10 10 10 10 10 10 10 10 10 10 10 10 10 10 10 10 9 10 10 10 10 9 9 9 9 10 9 9 9 9 9 9 10 9 9 9
10 10 10 10 10 10 10 10 10 10 10 10 10 10 10 10 10 10 10 10 9 9 9 9 9 9 9 9 9 9 9 9 9 9 9 9 9 9 9 9 9 9 9
10 10 10 10 10 10 10 9 9 9 9 9 9 9 9 9 9 9 9 9 9 9 9 9 9 9 9 9 9 9 9 9 9 9 9 9 9 9 9 9 9 9 9
10 10 9 9 9 9 9 9 9 9 9 9 9 9 9 9 9 9 9 9 9 9 9 9 9 9 9 9 9 9 8 8 9 9 9 9 9 9 9 9 9 9 9
9 9 9 9 9 9 9 9 8 8 9 9 9 9 9 9 9 9 9 9 9 9 9 9 9 9 9 9 8 8 8 8 8 8 8 8 9 9 9 9 8 8 8
9 9 9 9 9 9 8 8 8 8 8 8 9 9 9 9 9 9 9 9 9 9 9 9 9 9 8 8 8 8 8 8 8 8 8 8 8 8 8 8 8 8 8
Wind_Speed
4 5 5 6 6 7 6 6 7 7 7 7 8 8 8 8 9 9 9 11 12 12 12 13 12 11 11 10 10 9 9 9 8 8 7 7 6 6 6 6 6 6 7
4 4 4 5 5 6 6 6 6 6 5 6 7 8 7 7 8 9 9 10 11 12 12 12 12 12 12 11 10 10 10 9 9 9 8 7 7 7 6 6 6 6 7
5 5 4 4 5 6 7 7 7 6 5 6 6 6 7 7 8 8 9 10 10 12 12 13 12 12 12 11 11 10 10 10 10 10 9 7 7 7 7 7 6 7 8
5 5 4 3 4 6 5 4 4 5 5 5 4 4 5 6 7 8 9 10 10 10 12 13 13 12 12 11 11 10 10 10 10 10 9 8 7 7 7 7 7 7 8
5 5 4 3 4 4 4 4 4 4 4 4 4 4 5 5 5 7 8 9 10 11 11 12 13 12 11 11 10 10 10 10 10 9 9 9 8 8 7 7 7 7 8
5 5 4 4 4 4 3 4 4 4 3 3 4 5 4 4 5 6 6 8 9 11 11 11 11 11 11 11 11 11 10 9 9 8 8 8 8 8 7 7 7 7 7
4 5 3 3 3 3 2 3 3 4 3 2 3 3 4 5 5 5 5 6 7 9 9 10 10 10 9 10 11 11 9 9 8 8 8 8 8 8 7 7 8 8 8
4 4 3 2 2 2 3 3 2 2 1 2 2 2 3 4 4 5 5 5 6 7 8 9 10 10 9 8 9 10 10 8 8 8 8 8 8 8 7 8 8 8 8
5 4 3 3 2 2 2 1 2 2 1 1 2 2 2 1 2 3 4 5 6 5 6 7 8 9 9 9 8 9 10 9 8 8 8 8 8 8 8 7 7 7 7
4 4 3 3 2 1 1 1 1 1 2 1 1 2 2 3 2 1 3 4 5 5 5 6 7 8 8 8 8 8 10 9 9 8 8 8 8 8 7 7 7 7 6
4 4 3 3 2 1 0 0 1 1 1 1 1 1 2 2 2 2 1 3 3 3 4 4 5 6 7 7 7 7 9 9 9 8 8 8 8 8 7 7 7 7 6
2 3 3 2 2 1 0 0 1 1 1 1 1 2 2 2 2 2 2 1 2 3 3 3 4 5 6 7 6 8 8 8 8 9 8 7 7 8 8 7 6 6 6
1 2 2 1 1 1 0 1 0 1 1 1 1 1 2 2 2 3 2 1 1 2 3 2 3 4 5 6 6 8 7 8 7 7 7 7 7 7 7 7 6 6 6
1 1 1 0 0 0 0 0 0 1 1 1 1 1 1 1 2 3 3 3 0 2 2 3 3 3 4 5 6 6 6 7 7 7 7 6 6 7 7 7 6 6 6
0 0 0 0 1 0 0 0 0 1 0 1 1 1 1 1 1 2 2 3 3 1 2 2 2 3 4 4 5 5 5 6 6 5 5 5 5 5 6 6 6 6 5
0 0 0 0 0 1 1 1 0 1 0 0 1 1 1 1 1 1 2 2 2 3 1 2 2 2 3 3 5 4 4 5 5 4 5 4 4 4 4 5 5 5 4
1 1 1 1 0 0 0 0 0 0 0 1 0 0 1 1 1 1 2 2 2 2 2 2 2 2 2 2 4 4 3 3 3 3 3 3 3 3 3 4 4 4 4
1 1 1 1 1 0 0 1 1 0 1 1 1 1 1 1 1 2 2 2 2 2 3 2 1 1 1 1 2 2 3 3 3 3 3 2 2 3 3 3 3 3 3
1 0 0 1 1 1 1 1 1 1 1 2 2 2 2 2 2 2 2 2 2 1 2 2 1 1 1 1 2 2 2 2 3 2 2 1 1 1 1 1 1 2 2
1 1 1 1 1 1 1 1 1 1 1 1 2 2 2 3 4 4 3 3 2 2 2 2 1 1 1 1 1 1 2 2 2 2 2 2 2 1 1 0 0 0 1
1 1 1 1 1 1 2 1 2 2 1 1 2 2 3 3 4 3 3 3 3 2 2 2 2 1 1 1 1 1 1 1 2 1 1 2 2 1 2 2 1 1 1
1 1 1 1 1 2 2 2 2 1 1 2 2 2 3 3 3 4 4 4 5 4 4 3 2 3 4 3 2 2 1 0 2 1 0 2 1 2 3 3 3 2 2
1 1 2 2 2 3 3 3 3 1 2 2 2 2 3 3 3 2 3 4 4 5 6 5 5 5 5 5 4 3 3 3 3 2 1 2 1 2 4 4 4 4 3
1 2 2 2 2 4 4 4 3 1 1 2 3 3 3 4 3 3 2 2 3 4 5 5 6 6 6 5 6 5 4 2 1 1 2 2 2 2 3 4 5 5 5
2 2 2 2 3 4 5 4 3 1 1 3 3 3 3 4 5 4 2 3 3 4 5 6 6 5 5 5 5 3 2 2 1 2 2 2 1 1 2 2 4 5 6
2 2 2 3 3 4 5 4 3 1 2 3 3 3 5 5 5 4 3 3 4 5 3 3 3 3 2 3 4 4 4 3 2 2 2 2 1 0 2 2 2 3 4
Wind_Direction
60 55 56 57 58 64 68 67 68 66 61 58 57 56 49 42 38 35 29 40 47 49 48 47 44 42 42 46 47 47 48 51 50 51 51 54 63 70 71 71 72 70 73
76 66 58 56 58 64 71 73 72 71 65 62 54 49 46 43 38 36 31 29 36 41 40 40 40 40 40 44 47 47 48 50 50 52 52 54 61 64 68 72 74 74 75
85 80 67 59 61 71 76 76 69 70 68 61 52 46 45 41 39 35 34 31 28 32 35 35 35 38 39 41 42 45 48 50 53 52 49 50 53 60 65 66 69 75 77
86 85 76 67 70 80 82 83 73 72 62 57 52 41 40 37 35 38 38 34 31 26 26 30 32 35 36 38 38 43 48 52 52 50 50 50 50 53 57 61 64 75 79
87 88 78 75 78 79 76 84 74 80 78 65 59 49 39 35 29 40 40 35 32 29 24 22 25 29 34 34 35 38 46 49 50 49 48 46 47 50 54 62 70 75 80
86 90 84 73 79 78 69 79 84 71 74 73 72 54 37 30 35 40 38 35 30 28 26 24 23 22 29 31 33 35 41 43 47 48 46 43 42 49 58 67 72 80 86
85 93 85 75 77 86 88 95 99 83 62 62 69 44 26 30 37 32 32 33 28 23 26 27 26 24 25 29 31 33 38 39 42 45 45 42 44 58 65 75 77 76 78
67 88 95 89 79 86 80 79 94 97 63 49 86 74 22 7 15 23 23 29 21 22 25 26 26 24 24 25 25 30 32 33 40 45 48 45 55 67 71 72 78 82 78
58 70 88 99 90 100 122 119 116 120 134 40 66 120 119 233 333 356 13 20 17 21 18 20 25 23 25 23 21 25 27 28 36 45 46 49 55 63 69 71 72 78 80
47 57 71 85 93 98 120 183 127 123 135 143 55 56 116 153 140 346 347 358 10 20 13 18 17 18 21 21 20 24 29 29 35 40 44 49 52 58 64 67 72 73 75
37 49 64 72 72 75 103 99 100 121 137 159 155 127 90 69 101 142 302 334 352 356 4 8 15 14 15 17 18 29 34 33 31 34 40 46 49 54 57 61 66 68 69
19 27 53 61 55 47 71 173 138 147 177 147 152 149 152 148 161 150 179 279 324 326 343 359 8 7 9 14 21 30 33 34 33 33 37 41 47 50 51 56 62 66 63
348 337 15 29 20 345 256 145 131 227 211 172 179 180 162 170 157 150 148 180 327 324 336 343 350 1 8 12 19 27 29 30 30 30 33 39 45 46 46 49 53 59 61
248 277 343 351 327 305 330 131 103 249 213 200 210 178 157 179 157 156 158 153 114 344 351 321 332 347 357 7 11 23 25 26 31 31 29 36 42 43 41 43 46 51 55
274 347 324 5 351 347 358 112 249 273 256 207 211 193 168 188 166 166 159 162 160 195 299 302 316 327 349 5 6 16 18 22 28 27 25 30 35 38 40 39 39 46 55
304 113 320 50 358 4 30 82 338 300 176 242 184 183 193 195 174 162 162 157 158 168 210 268 269 298 336 3 6 10 9 15 22 18 19 19 23 34 44 43 42 44 50
209 200 215 200 198 313 29 98 317 322 201 267 282 224 222 192 182 181 158 144 140 146 183 278 285 305 327 345 355 4 1 2 359 3 8 16 32 39 44 42 44 45 39
226 223 220 201 219 234 218 198 240 275 212 248 258 255 243 198 199 196 179 174 176 171 174 219 282 300 300 307 334 341 354 352 337 339 355 9 39 41 44 45 44 47 40
206 215 190 215 238 234 226 239 231 239 246 249 235 229 243 193 212 213 199 192 191 181 165 177 237 269 288 322 357 346 343 336 333 337 7 10 1 356 6 23 47 43 39
190 214 227 241 248 236 221 228 215 218 249 268 254 236 240 216 216 210 205 198 182 167 156 160 209 249 269 294 9 325 324 320 315 330 355 348 335 312 312 305 271 44 60
209 209 202 259 282 253 237 223 204 211 224 270 279 262 256 254 234 212 210 197 178 173 170 176 204 230 248 241 248 250 268 300 296 262 330 317 323 317 296 279 260 246 257
219 202 211 239 269 273 271 258 247 212 224 249 275 283 281 275 268 251 240 212 190 183 188 194 213 223 238 232 218 218 213 260 283 272 220 291 294 277 268 253 247 241 244
228 229 244 248 262 269 279 281 272 237 241 251 256 261 278 278 271 252 246 235 222 216 205 196 207 226 229 218 202 210 211 217 236 229 167 259 269 273 272 255 251 249 247
226 233 245 249 262 278 282 280 284 256 256 264 258 246 248 266 258 243 221 223 234 236 231 216 211 225 230 215 205 208 208 218 250 258 185 233 251 268 287 268 255 251 253
248 248 247 242 252 273 280 278 282 233 268 280 277 276 260 254 268 257 222 228 249 265 261 242 241 244 246 233 199 158 158 167 236 244 202 207 239 279 282 270 268 257 252
241 249 257 252 249 261 273 268 271 233 263 277 285 285 282 274 265 241 214 214 236 254 262 269 277 286 265 233 198 186 187 189 200 236 210 192 207 205 289 278 282 277 263
Height
1529 1529 1528 1528 1528 1528 1528 1528 1528 1528 1529 1529 1529 1528 1529 1529 1529 1528 1528 1528 1527 1527 1526 1525 1524 1523 1522 1521 1520 1520 1519 1519 1518 1518 1518 1518 1518 1518 1518 1518 1518 1518 1518
1530 1530 1530 1530 1530 1530 1530 1530 1530 1530 1530 1530 1530 1530 1530 1530 1530 1529 1529 1529 1528 1527 1526 1525 1524 1523 1522 1521 1521 1520 1519 1519 1518 1518 1518 1518 1518 1518 1518 1518 1518 1518 1518
1532 1532 1532 1532 1532 1532 1531 1532 1532 1531 1531 1532 1531 1531 1531 1531 1531 1530 1530 1530 1529 1528 1527 1526 1525 1524 1523 1522 1521 1521 1520 1519 1519 1518 1518 1518 1518 1518 1518 1518 1518 1518 1518
1534 1534 1533 1533 1533 1533 1533 1533 1533 1533 1533 1533 1533 1533 1532 1532 1532 1532 1531 1530 1530 1529 1528 1527 1526 1524 1523 1522 1522 1521 1520 1520 1519 1519 1518 1518 1518 1517 1517 1517 1517 1518 1518
1535 1535 1535 1535 1535 1535 1535 1534 1534 1534 1534 1534 1534 1533 1533 1533 1533 1532 1532 1531 1531 1530 1529 1528 1526 1525 1524 1523 1522 1522 1521 1520 1519 1519 1518 1518 1517 1516 1516 1517 1517 1518 1518
1536 1536 1536 1536 1536 1536 1536 1535 1535 1535 1535 1534 1534 1534 1534 1534 1534 1533 1533 1532 1531 1531 1530 1528 1527 1526 1525 1524 1523 1522 1522 1521 1520 1520 1519 1518 1516 1515 1515 1516 1517 1518 1518
1536 1536 1536 1536 1536 1536 1536 1536 1536 1536 1535 1535 1535 1535 1535 1535 1534 1534 1533 1533 1532 1531 1530 1529 1528 1526 1525 1524 1524 1523 1523 1522 1521 1520 1519 1518 1516 1514 1515 1516 1517 1518 1519
1537 1537 1536 1536 1536 1537 1537 1536 1536 1536 1536 1536 1536 1535 1535 1536 1535 1535 1534 1534 1533 1532 1531 1530 1528 1527 1526 1525 1524 1524 1523 1522 1522 1521 1520 1518 1516 1515 1516 1517 1517 1518 1519
1537 1537 1537 1536 1536 1537 1537 1537 1537 1537 1536 1536 1536 1536 1536 1536 1536 1536 1535 1534 1533 1532 1531 1530 1529 1527 1526 1525 1525 1524 1523 1522 1522 1521 1520 1518 1517 1517 1517 1518 1518 1518 1519
1537 1537 1537 1536 1536 1536 1536 1536 1537 1536 1536 1536 1536 1536 1536 1536 1536 1535 1535 1534 1533 1532 1531 1530 1529 1528 1527 1526 1525 1524 1524 1522 1521 1521 1521 1519 1519 1518 1518 1519 1519 1519 1520
1537 1537 1536 1536 1536 1536 1536 1536 1536 1536 1536 1536 1535 1535 1535 1535 1535 1534 1534 1534 1533 1533 1531 1530 1529 1528 1527 1526 1525 1524 1524 1523 1522 1521 1521 1520 1520 1519 1520 1520 1520 1520 1521
1536 1536 1536 1536 1535 1535 1535 1535 1535 1535 1535 1535 1535 1534 1534 1534 1534 1533 1533 1532 1532 1532 1531 1531 1529 1528 1527 1526 1525 1524 1524 1523 1523 1522 1521 1521 1521 1520 1521 1521 1521 1521 1521
1535 1535 1535 1534 1534 1534 1534 1534 1534 1534 1534 1533 1533 1533 1533 1533 1533 1533 1532 1532 1531 1531 1531 1530 1529 1528 1527 1526 1525 1524 1524 1523 1523 1522 1522 1522 1521 1521 1521 1521 1521 1521 1521
1535 1534 1534 1534 1533 1532 1532 1532 1532 1532 1532 1532 1532 1531 1532 1532 1532 1532 1532 1531 1530 1530 1530 1530 1529 1528 1527 1526 1525 1524 1524 1523 1523 1522 1522 1522 1522 1522 1522 1521 1521 1521 1521
1534 1533 1533 1532 1532 1531 1531 1531 1530 1530 1530 1530 1530 1530 1530 1531 1531 1531 1531 1531 1531 1529 1529 1529 1528 1528 1527 1526 1525 1524 1524 1523 1523 1522 1522 1522 1522 1521 1521 1521 1521 1521 1521
1532 1532 1531 1531 1530 1530 1530 1529 1529 1529 1529 1528 1528 1528 1528 1529 1529 1530 1530 1530 1529 1529 1528 1528 1527 1527 1526 1526 1525 1524 1523 1523 1522 1522 1521 1521 1521 1521 1521 1521 1521 1521 1521
1531 1530 1530 1529 1529 1529 1528 1528 1527 1527 1527 1527 1527 1527 1527 1527 1527 1528 1528 1528 1528 1528 1527 1526 1526 1526 1525 1524 1524 1523 1523 1522 1521 1521 1521 1521 1520 1520 1520 1520 1520 1520 1520
1528 1528 1528 1527 1527 1527 1526 1526 1526 1525 1525 1525 1525 1525 1524 1525 1525 1526 1526 1526 1526 1526 1525 1524 1525 1524 1524 1523 1522 1522 1521 1521 1520 1520 1520 1520 1519 1519 1519 1519 1519 1519 1519
1526 1526 1526 1525 1525 1525 1524 1524 1523 1523 1523 1523 1523 1523 1523 1523 1523 1523 1523 1523 1523 1523 1523 1523 1523 1523 1522 1522 1521 1520 1520 1519 1519 1519 1519 1519 1518 1518 1518 1518 1518 1518 1518
1523 1523 1523 1523 1523 1522 1522 1522 1521 1521 1520 1520 1520 1520 1520 1520 1520 1520 1521 1521 1521 1521 1521 1521 1521 1520 1520 1520 1519 1518 1518 1518 1518 1518 1517 1517 1517 1517 1517 1517 1517 1517 1517
1521 1521 1521 1521 1521 1520 1520 1519 1519 1518 1518 1518 1518 1518 1518 1518 1518 1518 1518 1518 1518 1518 1518 1518 1518 1518 1518 1517 1517 1516 1516 1516 1516 1516 1516 1516 1516 1515 1515 1515 1515 1515 1515
1519 1519 1519 1518 1518 1518 1517 1517 1517 1516 1516 1515 1515 1515 1515 1515 1515 1515 1515 1515 1515 1515 1515 1515 1515 1515 1515 1515 1515 1515 1514 1514 1513 1514 1514 1514 1514 1513 1513 1513 1513 1513 1513
1516 1516 1516 1516 1515 1515 1515 1515 1514 1513 1513 1512 1512 1512 1512 1512 1512 1512 1512 1512 1512 1512 1512 1512 1512 1512 1512 1512 1512 1512 1512 1512 1512 1512 1512 1511 1512 1511 1512 1512 1511 1511 1511
1513 1513 1513 1513 1513 1512 1512 1512 1512 1511 1510 1509 1509 1509 1509 1508 1508 1508 1508 1508 1508 1508 1509 1508 1509 1509 1509 1510 1510 1510 1510 1510 1510 1510 1510 1509 1509 1509 1509 1509 1509 1509 1508
1510 1510 1510 1510 1509 1509 1509 1509 1509 1508 1507 1506 1506 1506 1505 1505 1505 1505 1505 1505 1505 1505 1505 1505 1505 1506 1506 1506 1506 1507 1506 1506 1506 1507 1507 1507 1506 1506 1506 1506 1506 1506 1505
1508 1507 1507 1507 1506 1506 1506 1506 1506 1505 1504 1503 1503 1502 1502 1501 1501 1501 1501 1501 1501 1501 1501 1501 1502 1502 1502 1502 1503 1503 1503 1503 1503 1504 1504 1504 1504 1504 1503 1503 1503 1503 1502